Probability
42 48 55 52 45 55 52 48 35 39 32 32 26 23 35 35 26 32 48 48 42 45 48 52 48 55 45 55 55 55 48 45 45 52 48 48 48 48 45 42 42 52 45
45 48 52 65 52 55 52 55 48 48 35 32 29 23 29 23 23 29 35 42 39 35 42 42 39 39 39 42 48 52 45 39 42 45 48 45 45 42 39 35 42 42 42
52 42 48 42 45 52 48 48 42 39 39 35 29 35 42 26 26 26 23 29 29 35 35 32 32 35 42 39 39 45 45 42 35 39 42 39 45 45 45 39 39 32 42
55 55 42 32 45 45 42 52 45 45 39 32 39 29 26 39 39 29 32 35 39 23 32 32 32 35 39 42 45 42 45 42 39 35 35 35 39 42 39 32 35 32 32
52 45 55 58 48 42 39 35 42 35 32 39 23 42 26 35 39 32 29 29 35 29 26 29 32 35 39 35 39 39 39 42 48 35 32 35 39 39 42 35 32 39 32
55 48 52 48 45 35 48 52 48 52 48 45 10 16 32 32 32 39 32 23 29 16 23 26 35 26 26 26 35 35 35 35 39 35 39 35 35 42 39 35 32 32 29
52 48 45 58 48 39 35 32 45 42 39 39 35 26 32 23 19 23 32 26 23 19 19 23 23 29 26 23 26 32 26 29 29 39 39 39 35 35 29 29 32 23 23
48 39 52 42 39 42 42 39 42 29 29 26 23 16 26 23 26 3 32 32 26 26 23 19 23 32 26 29 19 26 26 26 26 32 35 39 39 39 32 32 26 23 19
52 52 52 42 42 32 39 45 48 39 26 23 26 26 26 23 13 19 26 29 29 32 26 26 26 26 32 32 32 19 26 26 26 26 26 32 29 32 29 26 29 26 26
48 45 48 52 45 42 45 35 35 35 42 35 35 39 39 23 23 19 19 16 26 26 29 19 19 26 29 32 32 19 19 26 29 26 29 29 32 26 23 26 26 26 29
48 42 42 42 42 42 42 42 39 39 32 39 29 29 32 29 10 19 23 26 13 13 23 29 26 29 35 29 29 16 13 10 13 16 23 16 19 19 16 26 23 26 23
42 42 39 42 42 42 42 39 39 39 39 42 35 23 26 16 19 16 13 19 19 10 10 19 23 19 26 23 16 16 10 6 3 3 3 13 13 16 19 16 16 23 23
35 42 32 39 39 42 35 35 39 32 39 39 39 29 23 26 19 19 16 13 10 16 16 19 19 16 13 19 26 13 10 6 0 0 0 3 3 3 13 10 13 13 19
35 39 35 35 35 32 32 35 35 32 35 35 29 35 32 26 19 19 23 23 19 16 23 16 16 19 19 26 13 10 19 3 0 0 0 0 0 0 0 6 6 6 10
35 39 32 32 35 32 32 39 32 39 39 35 26 32 32 29 26 23 19 26 26 23 19 23 16 13 19 26 13 19 19 6 0 0 0 0 0 0 0 0 0 0 3
39 35 32 29 32 32 32 32 29 35 39 35 39 32 32 32 29 26 26 19 23 23 19 23 16 16 16 13 10 13 16 10 6 0 0 0 0 0 0 0 0 0 0
45 35 32 35 29 26 29 32 23 29 35 39 32 32 39 39 26 23 19 16 23 19 23 19 16 19 16 16 13 13 13 16 13 3 0 0 0 0 0 0 0 0 0
42 35 32 32 32 32 35 29 29 26 29 32 35 32 32 32 32 26 23 19 26 29 23 26 19 16 16 13 13 13 10 10 10 3 3 0 0 0 0 0 0 0 0
39 35 32 32 32 32 32 29 32 32 32 32 32 32 29 35 32 32 23 26 23 19 26 23 19 23 10 10 13 13 13 13 10 6 6 3 0 0 0 0 0 0 0
42 35 29 32 32 32 29 26 26 26 29 32 35 35 29 29 29 26 23 23 26 29 23 19 16 16 16 13 10 13 13 13 13 6 6 6 6 3 0 0 0 0 0
32 35 35 32 32 35 23 26 26 26 32 35 35 32 29 29 26 16 13 19 19 16 16 16 10 10 6 13 6 10 6 10 13 10 13 10 10 13 6 3 0 0 0
32 26 35 32 32 23 10 10 19 26 32 32 35 32 19 23 19 10 6 3 6 13 13 13 13 10 10 10 10 6 3 3 6 6 13 13 6 6 10 6 6 0 0
35 35 32 35 26 19 6 6 3 16 26 29 29 32 19 6 13 19 6 3 3 3 3 13 13 13 13 10 10 6 6 3 3 6 13 10 6 10 6 3 0 0 0
32 35 39 39 35 19 10 3 3 10 23 26 26 26 16 16 6 16 10 6 6 10 6 6 6 10 10 13 13 10 10 10 13 16 13 6 6 6 3 10 0 0 0
32 35 35 35 35 26 10 3 0 23 23 23 19 19 16 16 10 6 10 10 6 6 6 3 3 3 3 3 6 10 10 6 3 3 6 10 6 10 3 3 0 0 0
29 32 29 35 35 29 10 0 0 16 19 19 19 13 10 10 10 6 10 10 6 6 6 10 6 3 3 3 3 6 10 6 3 3 3 6 10 10 6 6 3 3 3
Height
5895 5894 5894 5893 5893 5892 5892 5891 5891 5890 5890 5890 5890 5890 5890 5890 5890 5891 5891 5891 5892 5892 5892 5892 5893 5893 5894 5894 5894 5895 5895 5895 5895 5896 5896 5897 5897 5898 5898 5898 5898 5899 5899
5895 5895 5894 5894 5893 5892 5891 5891 5890 5890 5889 5889 5888 5888 5888 5888 5888 5888 5889 5889 5889 5890 5890 5890 5891 5891 5891 5892 5892 5892 5893 5893 5893 5893 5894 5894 5895 5895 5895 5895 5896 5896 5897
5895 5895 5894 5893 5892 5891 5891 5890 5889 5888 5888 5887 5887 5887 5887 5887 5886 5886 5886 5886 5887 5887 5887 5887 5888 5888 5888 5889 5889 5889 5890 5890 5890 5890 5891 5891 5891 5892 5892 5893 5893 5893 5894
5895 5894 5893 5892 5891 5890 5889 5889 5888 5887 5886 5885 5885 5885 5885 5884 5884 5884 5884 5883 5883 5884 5884 5884 5885 5885 5886 5886 5886 5886 5887 5887 5887 5887 5887 5888 5887 5888 5889 5889 5890 5890 5891
5895 5894 5893 5891 5890 5889 5888 5887 5886 5885 5885 5884 5883 5883 5882 5882 5882 5881 5881 5881 5881 5881 5881 5881 5882 5882 5882 5882 5883 5883 5883 5884 5884 5884 5884 5884 5884 5884 5885 5886 5886 5887 5887
5894 5893 5892 5890 5889 5888 5886 5885 5884 5883 5883 5882 5881 5881 5880 5880 5879 5879 5878 5878 5878 5878 5878 5878 5878 5879 5879 5879 5879 5879 5879 5880 5880 5880 5880 5880 5880 5880 5880 5881 5882 5883 5883
5893 5892 5891 5889 5888 5886 5885 5884 5882 5881 5880 5880 5879 5878 5878 5877 5876 5875 5875 5875 5874 5874 5874 5874 5875 5875 5875 5875 5875 5875 5875 5875 5875 5875 5876 5876 5876 5876 5877 5877 5878 5878 5879
5892 5890 5889 5887 5886 5884 5883 5882 5881 5879 5878 5877 5876 5876 5875 5874 5873 5872 5872 5871 5870 5870 5871 5871 5871 5871 5871 5871 5871 5871 5871 5871 5871 5871 5871 5871 5872 5872 5872 5873 5874 5874 5874
5889 5888 5887 5886 5884 5883 5881 5880 5878 5877 5876 5875 5874 5873 5872 5871 5870 5869 5868 5867 5867 5867 5867 5867 5867 5867 5867 5866 5866 5867 5867 5866 5866 5866 5866 5866 5867 5867 5867 5868 5868 5869 5870
5887 5886 5884 5883 5882 5880 5878 5877 5876 5874 5873 5872 5871 5869 5868 5867 5866 5865 5864 5863 5863 5863 5862 5862 5862 5862 5862 5861 5861 5862 5862 5862 5862 5861 5861 5861 5861 5861 5862 5862 5863 5864 5864
5884 5883 5881 5880 5878 5877 5875 5874 5872 5871 5869 5868 5867 5865 5864 5863 5862 5861 5860 5859 5858 5858 5857 5857 5857 5857 5857 5857 5857 5857 5857 5857 5857 5856 5856 5856 5856 5856 5856 5856 5857 5858 5859
5880 5879 5878 5876 5875 5873 5871 5870 5868 5867 5865 5864 5862 5861 5860 5858 5857 5856 5855 5854 5854 5853 5853 5852 5852 5852 5852 5852 5852 5852 5852 5851 5851 5851 5851 5851 5851 5851 5851 5851 5852 5852 5853
5877 5875 5874 5872 5871 5869 5867 5866 5864 5863 5861 5859 5858 5856 5855 5854 5852 5851 5850 5850 5849 5848 5848 5847 5847 5846 5846 5846 5846 5846 5846 5846 5846 5846 5846 5846 5846 5846 5846 5846 5846 5847 5847
5873 5872 5870 5868 5867 5865 5863 5862 5860 5858 5857 5855 5853 5852 5850 5849 5847 5846 5845 5844 5843 5843 5842 5841 5841 5840 5840 5840 5840 5840 5840 5840 5840 5840 5840 5840 5840 5841 5840 5840 5841 5841 5842
5869 5868 5866 5864 5863 5861 5859 5857 5855 5854 5852 5850 5848 5847 5845 5843 5842 5840 5839 5838 5838 5837 5836 5835 5834 5834 5833 5833 5833 5833 5833 5833 5833 5833 5833 5834 5834 5834 5834 5834 5835 5835 5835
5865 5864 5862 5860 5858 5856 5854 5852 5850 5849 5847 5845 5843 5841 5839 5837 5836 5834 5833 5832 5831 5830 5829 5828 5827 5827 5826 5826 5826 5826 5826 5826 5826 5826 5826 5827 5827 5827 5827 5827 5828 5828 5829
5861 5859 5857 5855 5853 5851 5849 5847 5845 5843 5841 5839 5837 5836 5833 5832 5830 5828 5827 5825 5824 5823 5822 5821 5820 5820 5819 5818 5818 5818 5818 5818 5818 5818 5818 5819 5819 5819 5819 5820 5820 5821 5821
5856 5854 5852 5850 5848 5846 5844 5842 5839 5837 5836 5834 5832 5830 5828 5826 5824 5822 5820 5818 5817 5815 5814 5813 5813 5812 5811 5810 5810 5809 5809 5809 5810 5810 5810 5811 5811 5811 5811 5812 5812 5813 5813
5851 5849 5847 5845 5842 5840 5838 5836 5833 5831 5830 5828 5825 5824 5822 5820 5817 5815 5813 5811 5809 5808 5806 5805 5804 5803 5802 5801 5801 5801 5800 5800 5801 5801 5802 5802 5802 5802 5803 5803 5803 5804 5804
5845 5843 5841 5839 5836 5834 5832 5830 5828 5826 5823 5821 5819 5817 5815 5813 5811 5808 5806 5804 5802 5800 5798 5797 5796 5794 5793 5792 5792 5791 5791 5792 5792 5792 5793 5793 5793 5794 5794 5794 5795 5795 5795
5839 5837 5835 5832 5830 5828 5826 5823 5821 5819 5817 5815 5813 5811 5809 5806 5804 5801 5799 5797 5794 5793 5791 5790 5788 5786 5785 5784 5783 5782 5782 5782 5783 5783 5783 5784 5784 5785 5785 5785 5785 5786 5786
5833 5830 5828 5826 5823 5821 5819 5817 5815 5813 5811 5809 5806 5804 5802 5799 5797 5794 5792 5789 5787 5785 5784 5782 5781 5779 5777 5776 5774 5773 5773 5773 5773 5774 5774 5774 5774 5775 5775 5775 5775 5776 5776
5826 5824 5821 5818 5816 5814 5812 5810 5807 5806 5804 5802 5800 5797 5795 5792 5790 5787 5785 5783 5781 5778 5777 5775 5773 5771 5770 5768 5766 5765 5764 5763 5764 5763 5764 5764 5765 5765 5765 5765 5765 5766 5766
5818 5816 5814 5811 5809 5807 5805 5802 5800 5798 5797 5795 5793 5790 5788 5785 5783 5780 5778 5776 5774 5772 5770 5767 5766 5764 5762 5760 5758 5757 5756 5755 5754 5754 5754 5755 5755 5755 5755 5755 5755 5756 5756
5811 5808 5806 5804 5801 5799 5797 5795 5793 5791 5789 5788 5785 5783 5780 5778 5776 5773 5771 5769 5766 5764 5762 5760 5758 5756 5754 5752 5751 5749 5748 5747 5746 5746 5745 5745 5746 5746 5746 5746 5746 5746 5746
5803 5800 5798 5796 5794 5792 5790 5787 5786 5784 5782 5780 5778 5775 5773 5771 5768 5766 5763 5761 5759 5757 5755 5752 5750 5749 5747 5745 5743 5741 5740 5739 5738 5738 5737 5736 5736 5736 5736 5736 5736 5736 5736
Wind_Speed
3 3 2 1 1 2 3 4 4 4 5 6 7 8 8 9 9 9 9 9 9 9 10 10 11 11 11 11 11 11 11 11 11 10 10 10 10 10 10 10 10 9 10
2 2 2 2 2 3 4 5 5 6 5 6 7 8 8 8 9 10 10 10 10 10 11 12 12 12 12 11 12 12 13 13 12 12 12 12 12 12 12 12 12 11 11
3 3 3 3 3 4 4 5 6 6 6 6 7 8 9 10 10 11 11 11 11 11 11 12 13 13 13 13 13 13 14 14 14 13 13 14 14 14 14 14 13 13 13
3 4 4 4 5 5 5 5 6 6 6 6 8 8 9 11 11 12 12 12 12 12 12 13 13 13 14 14 15 15 15 15 16 16 15 15 16 16 15 15 15 14 14
4 4 5 5 6 6 7 7 7 8 8 8 8 9 10 12 12 12 12 12 13 14 14 14 15 15 15 16 16 16 16 16 16 17 17 17 16 17 17 16 16 16 16
6 6 6 6 7 8 8 8 8 9 9 9 10 10 11 12 13 13 14 14 14 14 14 15 15 15 16 16 17 17 18 18 18 18 18 18 17 17 16 17 17 17 17
7 8 8 8 8 9 9 9 10 10 10 10 11 11 12 13 13 14 14 15 16 16 16 16 16 17 17 17 18 18 18 18 18 18 18 18 18 18 18 18 18 18 18
9 9 9 9 9 10 10 10 10 11 11 11 11 12 12 13 14 15 15 15 14 16 17 18 18 18 19 19 19 19 19 19 19 19 19 20 19 20 20 21 20 20 19
10 10 10 11 11 11 11 11 11 11 12 12 12 13 14 14 15 14 14 14 14 14 15 16 17 17 17 18 18 18 19 18 18 19 20 21 22 21 21 21 22 21 22
11 12 12 12 12 12 12 12 12 13 13 13 14 14 15 16 16 15 15 15 16 16 16 17 16 17 18 18 18 18 19 19 19 19 20 21 22 23 22 21 22 23 22
12 12 13 13 14 15 14 14 14 14 14 14 15 15 15 16 16 17 16 16 16 16 16 17 17 17 18 18 19 18 19 19 20 20 20 21 22 22 22 22 22 23 23
13 13 14 14 15 15 15 15 15 14 15 15 15 16 16 17 17 17 18 17 17 18 18 19 19 19 18 18 19 19 20 20 20 20 21 21 21 21 22 22 22 22 23
15 14 15 15 16 16 16 16 16 16 16 16 16 17 17 18 18 19 19 19 19 19 20 20 20 21 20 20 20 20 20 21 21 21 21 21 21 21 21 22 22 22 22
15 15 16 16 17 17 17 17 17 17 17 18 18 18 18 19 20 20 21 21 20 20 21 21 22 22 21 21 21 21 22 22 22 22 22 22 22 22 22 23 23 23 23
16 16 17 17 18 18 19 19 18 18 18 18 19 19 19 20 21 21 21 22 22 22 22 22 22 22 23 23 23 23 23 23 24 24 24 24 24 24 24 24 24 25 25
16 17 18 19 19 19 20 20 19 20 20 20 20 20 20 21 21 22 23 23 24 24 23 23 23 23 25 25 25 25 25 25 25 26 26 26 26 26 26 26 26 26 26
19 19 20 20 20 20 20 20 21 21 21 21 21 21 21 21 21 22 23 24 25 25 25 25 25 25 25 26 26 26 27 27 27 27 28 28 28 28 27 28 28 28 28
19 20 21 20 20 21 21 22 22 21 21 21 22 22 22 22 22 23 24 25 25 26 26 26 27 27 27 28 28 29 29 29 29 30 30 29 29 29 29 28 30 30 30
21 22 22 22 21 22 22 23 22 21 21 21 21 22 23 23 24 24 24 25 25 26 26 27 28 28 29 29 30 31 32 32 32 31 31 31 30 30 30 30 31 31 31
23 23 23 22 23 23 23 23 23 23 22 22 22 23 24 24 24 25 25 25 26 26 26 26 27 28 29 29 29 30 31 32 32 32 32 31 31 31 31 31 31 32 31
24 25 24 25 24 24 24 24 24 24 24 23 24 24 25 25 25 25 25 25 25 25 25 25 25 26 27 28 29 30 30 31 32 33 32 32 32 32 32 32 31 32 32
26 26 25 25 25 25 25 26 25 24 24 24 24 25 25 26 26 26 25 25 25 25 25 26 26 26 27 28 30 30 31 31 31 32 32 33 33 32 32 32 32 32 32
27 27 27 26 26 26 27 26 26 26 25 24 25 25 26 26 25 24 24 24 25 25 25 25 25 26 27 27 29 29 30 31 31 31 32 32 33 32 32 32 32 31 32
28 28 27 26 26 26 27 27 27 26 25 25 25 26 26 26 25 24 24 25 24 25 25 26 26 26 27 27 27 28 28 28 29 30 31 31 32 32 32 32 32 32 32
28 28 28 27 26 26 27 27 28 27 27 26 26 25 25 26 26 26 26 26 25 24 25 25 26 26 26 26 27 27 27 28 28 28 29 29 30 31 31 32 32 32 32
29 29 29 28 28 27 27 28 28 28 27 27 26 26 26 26 26 27 27 26 26 25 25 26 26 26 25 26 26 26 26 27 27 27 28 29 30 31 30 31 32 32 31
Wind_Direction
57 42 32 12 301 284 273 274 270 265 259 256 252 251 249 249 250 250 254 251 249 247 246 246 247 248 249 246 247 247 248 243 241 242 244 244 244 246 248 249 248 248 248
25 6 343 327 302 288 283 284 281 277 274 266 257 257 257 258 255 256 256 254 253 252 253 252 249 252 253 253 250 249 249 246 243 243 246 245 246 248 247 250 251 249 248
356 333 320 310 299 289 288 292 293 282 275 268 262 262 262 263 258 261 262 259 255 254 254 255 257 256 254 254 250 251 251 250 250 248 249 253 252 249 250 251 252 250 248
344 326 312 309 304 294 293 292 289 287 282 274 264 264 267 268 266 267 267 263 258 258 255 256 257 258 256 255 253 254 252 251 254 254 253 253 250 249 250 252 253 251 249
328 321 319 318 312 305 297 294 292 291 284 281 272 267 269 270 268 268 269 266 262 259 258 261 260 257 257 256 255 257 256 253 254 256 257 254 251 248 250 251 252 252 249
326 323 325 320 315 308 300 295 295 292 288 285 281 275 274 270 269 272 269 267 265 264 262 261 262 260 261 259 259 260 259 258 256 257 258 257 255 249 249 252 253 251 250
312 311 314 315 314 309 303 300 295 292 288 290 291 285 279 276 275 279 273 267 267 266 265 263 262 262 262 262 263 265 264 264 262 259 257 257 257 254 254 253 254 253 253
306 307 305 305 308 307 304 304 300 293 291 291 292 292 290 284 281 279 278 275 272 271 265 266 266 265 264 264 264 265 266 267 266 263 259 257 257 257 256 256 255 255 253
299 301 301 300 303 305 302 300 299 296 294 290 290 289 288 288 288 282 280 278 274 272 270 270 268 269 268 267 267 267 270 270 268 265 263 260 258 257 257 257 254 255 253
297 297 299 299 301 305 302 298 295 296 296 293 291 290 288 286 285 283 279 275 273 271 272 272 271 271 272 270 269 269 267 266 267 266 265 264 262 261 260 258 255 256 253
296 300 300 301 299 299 299 297 296 296 296 294 291 290 290 288 283 282 279 275 275 273 273 274 274 274 273 271 270 270 269 268 267 266 268 267 264 263 263 261 257 255 254
299 301 301 300 301 302 300 297 296 294 292 292 291 290 290 290 286 282 278 277 275 274 273 273 271 272 272 272 271 270 269 268 268 267 267 266 265 265 264 263 261 258 256
299 299 301 301 301 301 301 299 297 293 292 292 291 290 290 289 287 284 280 278 275 274 272 271 270 270 271 272 271 270 268 268 268 267 267 267 267 267 265 265 263 263 262
297 299 301 300 300 300 300 300 299 296 294 294 293 291 288 288 286 285 281 279 277 276 274 274 272 270 271 271 270 270 268 267 267 268 269 270 269 268 267 265 263 262 263
297 299 300 300 300 300 300 300 300 298 296 295 293 291 288 287 285 285 282 279 278 277 276 275 273 271 273 271 270 268 266 266 267 268 270 271 272 270 270 268 264 263 263
299 300 299 300 301 301 300 299 300 298 295 294 294 292 291 290 287 285 283 280 278 277 275 274 274 272 271 271 270 269 266 265 267 269 270 271 272 272 270 268 266 265 265
299 297 297 299 301 301 300 298 299 299 296 294 292 291 291 291 289 288 286 285 281 276 275 274 274 274 272 271 269 268 267 266 266 269 271 271 271 270 271 268 267 266 265
300 298 297 298 297 299 299 298 296 297 296 294 293 292 292 292 291 290 289 286 283 279 277 276 274 274 272 271 270 270 270 269 268 269 270 270 270 269 269 268 268 268 266
297 298 297 297 296 296 297 297 297 296 293 292 292 292 293 293 292 291 289 286 283 280 279 278 276 275 274 272 271 270 269 269 269 269 270 269 269 269 269 269 269 269 267
295 296 294 294 293 293 294 294 293 293 291 290 290 290 291 292 293 292 290 287 285 283 281 280 279 278 277 275 273 270 269 269 269 269 269 269 268 269 269 269 269 268 268
296 294 292 291 290 291 292 292 291 291 292 291 291 291 291 291 292 292 291 289 286 285 283 281 280 281 278 276 274 273 271 270 269 268 268 269 269 270 271 271 271 269 267
295 292 291 289 288 290 290 288 288 289 291 292 292 293 292 291 291 292 291 290 288 286 283 281 281 281 281 278 277 276 274 272 270 269 269 269 270 271 272 272 272 271 269
293 292 290 290 289 289 288 286 286 286 286 289 291 293 294 293 292 291 290 290 289 288 286 283 284 283 282 281 279 278 277 275 271 271 270 270 270 271 271 271 271 271 270
292 292 292 290 289 289 288 287 287 286 286 289 291 292 292 292 293 291 290 290 289 289 288 286 285 284 283 283 282 279 278 277 274 272 272 271 271 271 270 271 271 270 268
291 292 292 293 292 290 289 287 287 287 286 286 289 291 292 293 292 291 289 289 290 289 288 287 286 284 284 283 282 281 279 278 277 276 274 274 272 271 271 270 270 270 269
290 289 289 290 291 290 289 289 289 288 286 287 289 290 292 293 294 291 291 291 291 290 289 289 288 287 286 285 283 283 282 281 279 279 278 277 276 274 272 272 271 271 269